Terminal Aerodrome Forecast
Issued by NWS Sterling, VA

Current Version | Previous Version | Text Only | Print | Product List | Glossary Off
Versions: 1 2 3 4 5 6 7 8 9 10 11 12 13 14 15

000
FTUS41 KLWX 021122
TAFMRB
TAF
KMRB 021122Z 0212/0312 26009KT P6SM BKN045
     FM021500 28013G22KT P6SM BKN045
     FM022300 27009KT P6SM BKN045=

USA.gov is the U.S. government's official web portal to all federal, state and local government web resources and services.